RH
16 15 14 13 10 9 9 8 8 8 8 9 10 11 12 12 11 12 14 19 23 25 28 30 32 34 34 30 22 16 14 12 11 11 10 12 16 20 25 27 28 28 27 27 26 25 25 24 24 24 24 23 23 22 21 20 20 19 18 20 16 22 22 41 89 95 79 94 104 98 103 104 99 103 101 98 100 99 102 103 100 97 98 95 73 56 55 45
16 15 14 13 11 10 9 8 8 8 8 8 9 10 11 12 11 11 11 13 17 21 23 26 29 31 33 33 30 22 16 14 12 12 11 10 12 14 19 23 25 27 27 27 27 26 25 25 24 24 24 23 23 22 23 20 20 21 19 20 17 21 19 27 65 76 68 90 103 94 96 99 99 103 103 102 99 97 103 102 100 97 98 93 70 62 61 36
15 15 14 14 12 11 10 9 9 8 8 7 8 9 10 11 12 12 11 11 12 15 19 21 24 27 30 32 33 30 22 17 13 13 13 11 11 11 13 16 20 23 25 26 26 26 24 25 24 24 24 22 24 22 22 21 20 21 19 21 19 18 20 21 33 40 53 83 94 85 91 99 100 102 100 99 97 99 101 99 102 97 96 93 80 77 62 32
15 15 14 14 13 12 11 10 9 9 8 8 8 8 9 10 11 12 11 12 11 12 14 16 20 23 27 28 31 33 30 22 14 13 14 13 11 11 11 11 15 17 20 23 23 25 24 24 24 24 24 22 23 23 22 21 20 21 20 20 20 19 19 20 21 22 33 57 68 67 90 102 97 103 100 98 102 100 99 99 103 99 99 100 99 92 62 43
16 15 15 14 14 13 12 11 10 10 9 9 8 7 8 9 10 11 11 12 11 12 12 13 15 18 22 25 28 30 34 28 17 17 17 13 13 12 12 10 11 12 14 17 19 21 22 24 24 24 24 23 22 23 23 22 22 21 21 20 20 20 19 19 20 20 21 34 47 52 84 103 96 104 102 101 105 98 99 100 100 100 90 84 101 98 66 66
16 16 15 14 14 14 13 12 11 11 10 10 10 8 8 8 9 10 11 12 11 12 12 12 12 14 17 20 24 26 31 29 22 25 21 13 15 13 13 13 10 10 10 12 13 16 18 20 22 23 23 23 23 22 22 22 23 21 21 21 21 21 20 20 19 21 18 23 39 40 61 96 103 103 101 100 99 98 100 95 99 98 72 66 97 95 65 78
18 17 16 15 14 14 14 13 12 11 11 10 11 10 9 8 8 9 10 11 12 11 11 13 12 12 14 16 20 23 27 27 25 30 24 16 17 14 14 15 12 11 9 10 10 11 13 15 17 20 21 22 22 22 22 21 21 21 21 21 21 22 20 21 19 20 19 17 31 28 37 86 107 97 98 100 97 101 96 91 100 85 59 67 95 88 59 76
20 19 18 16 15 15 14 14 13 12 11 11 11 11 11 9 9 8 9 11 11 12 11 12 13 12 13 14 17 19 23 24 24 31 29 22 21 17 14 15 15 13 11 10 10 9 10 11 12 14 16 18 20 20 22 21 21 20 20 20 20 21 20 20 19 19 20 15 21 21 28 78 108 100 98 99 100 101 95 99 96 65 56 68 83 78 49 58
20 20 20 19 18 16 15 14 14 14 12 12 11 11 12 11 11 9 9 10 10 12 12 12 12 12 13 13 15 16 20 21 22 30 31 26 25 22 17 15 15 15 14 12 10 10 9 9 10 11 12 13 15 17 18 19 20 19 19 20 18 20 19 18 19 18 18 15 17 18 20 52 88 96 100 104 101 99 100 96 70 49 62 70 70 66 45 50
18 19 19 19 20 18 17 16 14 14 13 13 12 11 11 11 12 11 10 10 10 11 12 13 12 12 12 13 14 15 18 19 20 26 29 27 28 27 21 16 16 15 15 14 12 11 9 10 9 9 10 10 12 12 15 15 16 17 17 18 17 17 17 16 17 16 16 15 14 16 16 24 43 58 80 99 96 94 92 63 46 65 84 80 58 44 51 65
14 15 16 17 18 18 18 18 16 15 14 14 13 12 12 11 11 11 12 11 11 10 10 12 13 12 12 12 14 14 16 18 19 21 25 27 28 29 27 21 17 16 16 15 14 13 11 11 10 10 9 9 10 10 11 12 12 15 14 15 16 15 16 15 15 14 15 15 14 14 15 14 18 26 48 81 88 77 57 28 51 95 86 63 39 36 69 79
12 10 11 12 13 15 16 17 17 16 16 15 14 13 12 12 11 11 11 12 11 12 10 11 12 13 13 13 13 13 14 17 18 18 20 25 26 28 29 26 21 18 17 16 15 14 13 13 12 11 10 9 9 9 9 10 10 11 12 13 14 14 14 14 14 14 14 15 15 14 14 13 14 17 26 64 85 60 30 18 54 83 55 35 32 47 80 79
13 10 9 9 9 11 12 14 16 16 16 16 15 14 13 13 12 11 11 11 11 12 12 11 12 12 14 14 13 12 13 15 16 17 18 20 23 25 27 28 27 23 19 17 16 16 14 14 14 13 12 11 10 9 9 9 9 9 10 11 11 12 12 12 13 13 13 13 14 14 14 13 12 14 13 35 54 35 20 22 37 50 35 31 40 52 73 82
16 14 11 9 8 8 8 10 11 14 15 15 15 14 14 14 13 13 11 11 10 11 12 12 12 12 13 15 15 14 13 13 14 16 17 17 19 22 24 27 28 27 25 21 17 17 16 15 15 14 14 14 12 11 10 9 9 9 8 9 9 10 10 11 11 11 12 11 13 12 13 13 11 14 11 14 26 19 14 20 24 28 27 34 45 51 67 92
16 15 13 11 10 9 8 8 8 9 11 13 15 14 14 14 14 14 13 12 11 10 10 11 12 13 14 14 14 15 15 13 13 14 15 16 16 18 21 24 26 28 28 26 22 18 17 16 15 15 15 15 14 13 12 11 11 9 9 9 9 9 8 9 9 9 10 9 11 11 10 13 10 12 11 11 23 20 11 18 19 16 24 36 42 49 66 93
14 13 13 12 11 10 9 9 8 8 8 9 11 13 14 14 14 14 14 13 12 11 10 10 10 11 13 14 13 15 17 16 15 14 14 14 15 16 17 20 22 25 27 28 27 22 18 17 16 16 15 16 16 15 15 15 12 10 10 9 8 8 8 8 8 8 9 9 9 9 10 11 10 11 11 10 15 13 9 15 13 12 28 33 30 49 70 90
12 11 12 11 11 10 9 9 9 8 8 8 8 10 11 13 14 14 14 14 13 13 12 10 10 9 10 12 13 15 17 17 17 16 15 14 14 14 15 16 18 21 24 26 28 28 23 19 17 17 16 16 16 16 17 17 14 12 10 9 9 8 8 7 8 8 8 8 8 8 9 8 10 9 9 12 11 9 10 10 9 15 28 21 21 49 68 86
11 10 10 10 10 10 10 9 10 9 9 8 8 8 8 10 12 13 14 14 14 14 13 13 11 10 10 10 11 13 14 15 16 17 17 16 15 14 14 14 15 16 20 23 26 29 28 24 20 18 17 17 16 16 17 16 14 13 12 11 10 9 9 8 8 8 7 8 8 8 8 7 10 8 8 11 8 9 9 8 10 13 21 17 19 41 57 85
11 10 10 9 9 9 10 10 10 10 10 10 9 8 8 8 9 11 13 13 14 14 14 14 13 12 11 10 10 11 13 13 14 15 16 17 17 16 14 13 14 14 15 19 22 25 28 28 25 23 22 19 17 16 15 15 14 15 15 13 12 10 10 9 9 9 8 9 8 8 8 8 8 7 9 6 9 18 15 12 10 9 28 30 19 27 42 77
11 10 9 9 9 8 9 10 11 11 11 11 10 9 9 9 8 9 10 11 13 14 14 15 14 14 12 12 12 11 11 12 13 14 13 15 16 17 17 15 14 13 13 15 17 19 23 27 31 31 27 20 18 17 15 15 15 16 16 15 15 13 12 12 11 10 10 10 9 8 7 7 8 8 8 5 13 23 18 16 10 21 51 37 13 24 38 69
11 10 9 9 8 8 8 9 11 12 12 12 12 11 10 9 9 9 9 9 11 12 14 15 15 14 14 15 13 11 11 10 12 14 13 12 13 14 16 16 16 15 14 13 14 16 18 22 28 32 30 24 20 19 16 15 15 15 16 16 16 15 14 14 11 11 11 10 10 10 7 7 8 8 8 7 8 16 23 19 13 42 66 30 11 34 50 74
11 10 10 10 9 8 9 9 10 12 13 13 13 13 12 10 10 10 10 9 9 10 11 13 15 15 15 16 15 13 12 11 11 12 13 13 12 12 13 14 16 16 15 14 13 13 16 19 22 25 28 28 24 21 18 17 16 15 15 16 17 17 16 15 12 11 12 12 11 9 8 8 9 8 9 8 7 18 29 17 14 45 51 20 21 47 64 87
12 11 11 11 11 10 10 11 11 11 12 14 15 15 14 12 11 10 11 10 10 10 10 11 13 14 15 16 17 16 14 14 12 11 12 12 11 12 12 13 14 15 15 16 15 14 14 16 17 18 22 26 27 24 21 19 17 16 16 16 17 17 16 15 14 13 12 12 11 9 9 9 10 10 9 9 8 13 16 9 15 31 28 24 40 55 74 98
12 12 12 13 13 12 13 13 13 12 12 13 15 16 16 15 14 11 11 11 11 10 10 10 10 12 14 15 16 16 16 16 14 14 13 11 11 12 13 13 13 14 14 15 16 16 15 14 14 15 16 20 24 25 25 23 19 17 18 18 18 17 16 15 13 13 12 12 12 12 11 11 11 11 10 11 8 8 11 11 14 19 27 43 57 69 88 104
12 13 14 15 15 14 15 15 15 15 14 13 14 15 17 17 17 15 12 11 12 11 11 11 11 10 11 12 14 15 16 16 16 17 16 13 12 11 12 11 12 14 14 14 15 16 17 15 13 14 14 15 18 22 26 27 25 22 20 20 19 18 16 15 13 12 12 12 14 13 12 11 12 12 11 11 9 10 13 19 28 38 50 64 75 88 99 105
13 14 15 16 16 16 16 17 17 17 16 15 14 14 15 17 18 18 17 13 12 12 11 11 12 11 10 10 11 12 14 15 16 18 19 16 14 13 12 11 11 13 14 14 14 15 17 16 14 14 14 14 15 17 21 26 28 27 25 23 22 20 17 15 13 12 11 12 15 14 12 12 12 13 12 11 12 14 22 41 68 84 87 89 96 100 100 104
13 14 15 16 16 16 17 18 18 18 18 17 16 15 14 15 17 19 20 18 15 12 12 12 12 12 11 10 10 10 11 13 14 16 18 18 17 16 15 13 12 11 11 11 12 16 18 18 17 15 14 15 14 15 17 20 25 29 29 27 25 22 19 15 12 11 11 12 14 14 12 12 13 14 13 12 11 21 50 80 96 104 105 103 101 100 101 106
12 13 13 15 16 16 17 18 19 20 20 19 18 17 15 15 16 17 19 21 19 16 13 12 12 12 11 11 11 10 10 10 11 14 16 17 18 18 18 17 15 12 10 10 11 14 18 19 19 17 15 15 14 14 14 15 20 24 27 29 29 24 18 16 14 11 11 11 13 14 12 11 13 14 14 15 11 23 66 99 101 101 106 105 100 99 104 106
11 11 11 13 15 16 17 17 19 21 21 20 20 20 18 17 16 16 17 19 20 20 18 14 12 12 12 12 12 11 11 10 10 11 13 14 16 17 19 19 18 16 13 12 11 12 15 16 18 20 20 18 16 14 14 14 16 19 22 25 28 26 21 18 15 13 11 10 12 14 13 12 13 14 13 15 15 21 52 86 98 100 101 100 100 101 103 103
10 10 10 12 13 15 16 18 19 21 22 22 22 22 21 20 18 17 16 16 17 19 20 19 15 13 12 12 12 12 11 11 11 11 11 12 13 14 16 17 18 18 16 15 14 12 12 11 14 20 24 24 22 19 16 15 14 15 18 20 23 25 24 21 17 15 12 11 13 13 14 13 12 14 14 13 17 18 33 63 79 88 97 99 100 102 102 100
9 9 10 10 12 14 15 17 19 21 23 25 25 24 23 23 21 19 17 15 15 16 18 21 21 17 14 12 13 12 12 12 12 12 11 11 11 12 13 14 15 17 17 18 18 16 13 11 11 13 18 22 25 25 23 19 17 15 16 18 20 21 23 23 20 18 14 12 13 13 13 13 11 13 13 13 16 17 32 59 66 73 96 103 98 101 102 100
10 10 10 10 11 12 13 16 19 21 23 25 27 27 26 25 23 21 19 16 14 14 15 19 22 22 18 14 12 13 13 13 13 13 12 12 13 12 12 11 12 14 15 17 18 17 15 13 12 12 12 15 18 21 22 21 20 17 16 18 18 18 18 20 21 21 19 16 15 14 12 12 12 13 12 12 15 14 28 62 77 79 96 104 99 100 103 102
10 10 11 11 11 12 12 14 17 20 23 25 28 29 29 28 25 23 21 18 16 15 15 18 20 21 20 17 14 14 13 13 13 13 13 13 14 13 12 10 10 12 12 13 15 17 17 16 16 17 14 13 13 15 17 20 21 18 17 17 16 16 15 16 19 22 23 22 17 15 12 11 12 13 13 12 15 15 17 37 64 77 88 100 104 102 100 100
10 10 11 11 11 12 12 13 15 19 22 25 28 30 31 31 28 25 22 20 20 19 18 19 18 18 19 19 18 16 14 13 13 14 14 13 13 13 12 11 12 12 10 11 12 14 16 17 18 19 18 15 14 13 13 16 19 19 20 19 15 13 13 14 16 18 22 23 18 14 11 11 13 12 13 12 12 16 15 16 32 54 72 87 99 101 100 100
10 10 10 12 12 13 13 13 15 17 20 25 28 31 33 33 30 27 25 27 28 24 20 20 18 16 17 18 18 18 16 14 13 14 14 14 13 12 12 12 13 13 11 11 12 12 13 14 15 17 18 19 19 16 13 11 13 15 19 22 19 15 13 14 15 16 18 18 16 13 10 11 13 12 13 13 11 13 16 16 19 34 58 76 86 93 97 100
10 10 10 12 12 14 14 14 15 15 18 21 26 32 34 34 33 31 30 32 32 26 22 21 19 17 17 17 17 18 18 17 15 14 13 14 14 11 11 13 13 13 13 12 11 11 12 11 11 14 15 18 20 19 16 12 11 11 12 18 21 19 17 15 15 16 15 13 14 14 13 12 12 13 12 12 13 11 13 18 16 22 48 74 84 86 92 102
11 10 11 12 13 14 15 15 15 15 16 18 23 30 34 37 38 36 33 33 32 28 26 26 23 21 19 17 18 18 18 19 18 16 14 13 13 12 12 12 13 13 13 13 12 12 13 11 9 10 12 14 16 18 18 15 13 12 11 13 16 17 18 16 15 15 14 12 12 13 14 12 10 13 13 11 13 12 11 17 16 15 33 61 84 90 86 97
11 11 12 13 13 15 14 16 16 15 16 17 20 26 32 37 39 38 35 35 34 29 29 31 31 27 22 19 21 21 19 19 20 20 17 14 12 12 12 12 13 13 12 13 12 12 14 12 10 10 9 10 12 15 17 18 18 18 17 15 12 12 14 15 14 14 14 13 11 13 15 14 11 12 14 13 13 11 11 14 15 13 20 38 69 87 78 85
12 11 13 13 14 15 15 16 17 17 18 18 19 22 26 33 37 38 38 38 36 32 31 36 37 32 25 22 24 24 21 20 20 20 18 16 14 12 12 12 12 13 13 12 12 12 13 13 11 10 9 8 9 12 14 16 18 19 20 19 16 13 12 13 14 15 16 14 11 12 15 15 14 13 14 14 13 12 11 13 12 13 17 25 49 73 76 85
12 12 14 13 14 15 16 17 17 18 19 19 20 20 21 26 31 36 39 40 40 37 35 37 38 35 30 26 27 28 26 22 22 21 18 17 18 15 13 13 13 13 13 12 12 12 12 12 11 10 10 10 9 10 11 12 14 15 17 19 18 14 11 10 13 14 16 17 14 13 14 17 17 17 16 14 13 12 10 12 11 10 17 27 48 69 74 87
13 13 14 14 15 16 17 18 18 19 20 20 21 20 20 21 24 30 36 40 43 41 38 38 40 41 36 29 30 35 35 28 25 25 20 17 19 19 16 14 14 14 14 13 12 12 11 12 12 11 11 11 10 10 10 10 12 13 14 16 17 16 13 10 11 11 12 16 17 14 14 19 22 22 19 13 13 13 10 11 12 9 12 27 58 82 81 87
14 14 14 15 16 17 18 18 19 20 20 21 21 21 21 21 22 25 29 35 40 41 41 42 44 46 41 34 33 37 40 36 29 25 22 19 19 19 18 17 16 16 16 14 12 12 12 11 12 11 11 11 11 10 11 11 12 13 14 14 16 17 17 15 14 12 10 11 13 12 13 19 24 25 21 14 11 12 11 10 10 11 9 16 51 83 82 78
15 14 15 16 16 17 19 19 21 21 21 22 22 22 23 23 23 23 25 29 33 36 39 42 45 47 44 39 36 37 41 43 38 29 22 21 21 19 18 19 19 18 18 17 14 12 12 11 12 12 10 11 11 10 11 12 12 14 15 14 13 14 16 17 17 16 12 9 9 9 11 18 23 22 22 17 12 11 13 11 9 11 8 9 34 61 59 56
16 15 16 16 17 18 18 20 21 22 23 23 23 24 24 24 24 24 25 26 26 28 32 36 39 42 43 41 39 38 39 41 42 36 26 22 22 21 20 20 20 19 19 19 17 14 12 10 11 12 11 11 10 10 11 12 12 12 13 14 12 10 11 14 14 13 12 9 9 7 9 17 21 17 17 17 13 10 12 12 9 9 8 6 19 37 40 41
16 17 18 17 18 19 19 21 22 23 25 24 25 26 25 26 26 26 26 25 24 24 25 28 30 33 37 38 37 38 38 38 40 40 33 24 20 20 22 21 19 18 17 19 19 16 12 11 10 11 12 11 10 10 10 10 11 10 12 14 13 10 8 9 10 10 10 9 9 7 6 14 20 14 11 13 13 11 11 11 9 8 8 5 9 20 25 36
16 18 19 18 20 20 20 22 22 23 25 25 26 27 26 27 27 27 27 26 26 25 24 25 25 25 28 30 31 32 34 35 36 37 35 28 21 20 21 21 19 18 17 16 18 17 14 13 11 10 12 12 11 10 9 9 10 10 12 14 14 12 8 8 9 9 10 10 11 9 6 9 16 14 10 11 12 10 9 9 9 8 9 8 8 10 12 25
17 19 20 20 21 21 21 22 23 24 26 26 28 28 27 28 28 28 28 27 27 26 25 24 24 23 23 23 24 25 26 28 30 32 34 31 26 23 21 20 20 21 20 17 16 16 15 15 13 11 12 13 12 10 9 9 9 9 11 12 14 14 10 9 8 8 10 11 12 13 9 8 12 12 10 10 12 14 13 8 7 8 8 8 9 10 7 12
19 20 22 22 23 23 23 24 24 25 26 27 28 29 29 29 29 29 29 28 28 27 26 25 24 23 23 22 22 21 20 21 22 24 26 27 27 25 22 21 21 22 24 21 18 17 16 16 14 12 12 13 14 12 9 9 8 8 10 11 12 13 12 10 7 6 9 10 11 14 12 11 10 10 11 9 9 18 22 12 5 7 9 8 8 9 7 7
21 22 23 23 25 25 25 26 25 25 26 26 27 28 28 29 28 28 28 27 27 26 26 26 25 24 24 22 22 21 20 19 18 18 19 19 21 21 21 21 21 22 24 24 22 20 18 17 14 12 12 12 13 13 10 9 9 8 9 10 11 12 12 11 9 6 7 8 9 12 12 12 11 9 11 10 7 12 22 20 9 5 10 10 7 8 8 7
23 24 24 24 27 27 28 29 28 28 28 28 28 28 27 27 27 27 26 26 26 25 24 24 24 23 23 22 21 21 20 20 19 18 18 18 17 16 17 17 18 20 22 22 23 23 22 21 15 11 12 12 12 14 12 10 9 8 9 9 10 11 12 12 10 8 7 8 10 11 12 12 11 11 11 11 9 6 18 34 24 6 8 12 7 8 7 7
24 25 26 26 27 27 29 30 31 31 32 31 32 31 30 29 28 27 27 25 24 24 23 23 23 22 22 22 21 21 21 21 21 20 20 20 18 16 15 14 13 14 16 17 19 21 22 22 18 12 10 11 12 12 12 11 9 8 8 9 9 10 11 11 12 10 8 8 10 11 11 11 11 12 12 11 10 4 11 33 33 12 8 12 9 8 7 6
26 27 27 28 29 29 30 31 32 34 34 33 34 33 31 31 29 27 27 25 24 23 21 21 20 20 21 20 20 20 20 19 19 18 18 17 16 15 13 12 11 10 10 11 12 14 17 18 17 13 10 10 11 10 11 11 9 8 8 9 9 9 10 10 11 12 10 9 11 11 10 9 8 11 12 10 9 6 5 17 27 18 10 11 12 9 7 7
Wind_Speed
39 39 39 38 38 38 38 39 39 40 40 40 40 40 40 40 40 40 40 40 39 38 36 35 34 33 32 32 32 32 34 36 39 42 46 49 50 50 50 50 49 48 48 46 45 44 43 42 41 39 38 37 36 34 33 32 31 30 29 28 27 25 24 21 19 17 15 16 14 10 9 12 12 9 13 14 15 22 24 23 21 23 25 25 27 29 29 31
40 40 40 40 40 40 40 40 41 41 42 42 42 42 42 42 42 42 42 42 41 40 39 38 37 36 35 35 34 34 35 36 38 40 42 46 50 51 52 51 51 50 49 49 48 48 46 45 43 42 41 39 38 37 36 35 33 33 31 30 29 28 27 24 22 19 17 15 13 12 13 14 10 8 14 17 19 19 18 20 23 26 26 27 29 28 29 33
41 42 42 41 41 41 41 41 42 43 43 44 44 44 44 44 43 43 44 44 44 43 42 41 40 39 38 37 37 37 37 37 38 38 39 43 47 49 52 53 53 52 51 51 51 50 48 47 45 44 42 41 39 38 37 36 35 35 34 33 31 30 30 27 25 23 21 17 14 14 14 14 12 13 19 22 23 20 15 20 26 27 25 28 28 27 29 35
43 43 43 43 43 43 43 43 43 44 45 45 45 46 46 45 45 45 45 45 45 45 45 44 43 42 41 40 39 40 39 40 40 37 38 41 43 46 49 53 54 53 53 53 52 51 50 48 47 45 44 43 41 40 39 38 37 36 36 35 33 33 32 30 28 27 25 22 19 16 14 15 15 17 21 23 24 22 20 22 25 22 22 26 25 27 31 35
45 45 45 45 45 45 45 45 45 45 46 46 47 47 47 47 47 47 46 47 47 47 47 47 46 45 44 43 42 42 42 43 41 38 40 41 41 43 45 49 53 54 54 54 54 52 51 50 49 48 47 46 45 44 42 41 39 38 38 37 36 35 34 32 31 30 28 26 24 20 17 17 18 18 20 23 24 25 24 24 23 19 23 27 27 30 33 33
48 48 48 48 47 47 47 47 47 47 47 47 48 48 49 49 49 49 48 48 49 49 49 49 48 47 47 46 45 44 44 46 43 41 43 42 41 42 42 45 50 53 54 55 55 54 52 52 51 51 50 48 47 46 45 44 42 42 41 40 39 39 37 35 35 33 30 29 28 25 22 21 20 19 19 21 25 26 26 26 23 24 28 30 30 31 32 30
51 51 51 51 50 50 50 49 49 49 49 49 49 50 50 50 51 51 50 50 50 51 51 51 50 50 49 48 48 47 47 49 47 44 45 43 42 43 43 43 45 50 53 53 54 54 54 53 53 53 52 51 50 48 47 46 46 46 45 44 43 42 41 39 38 37 34 32 32 30 27 26 25 24 21 20 25 28 29 28 26 28 31 30 30 31 30 28
54 54 54 54 54 54 53 52 52 51 51 51 51 51 51 52 52 53 53 52 52 52 52 52 52 52 51 51 51 49 49 52 49 46 47 46 45 45 44 44 44 46 49 50 52 53 54 55 54 54 53 52 51 50 49 49 49 49 48 46 46 45 45 43 41 40 38 36 37 35 31 30 27 24 23 24 29 32 32 29 28 31 32 31 32 31 30 29
59 58 58 57 57 57 57 56 55 55 54 54 53 53 53 53 53 54 54 55 54 54 54 54 54 54 54 53 53 52 53 54 50 48 51 50 47 47 46 46 45 45 46 48 50 51 53 54 54 54 53 53 52 51 51 52 52 51 49 49 49 49 48 47 45 44 41 39 40 38 35 34 31 27 26 29 32 32 32 31 31 34 33 32 31 31 32 30
63 63 62 62 61 61 61 60 59 58 58 57 56 55 55 55 55 55 55 56 56 56 55 55 56 56 56 55 55 55 56 55 52 52 54 53 51 50 49 48 47 46 46 47 48 49 50 51 51 52 53 53 53 53 54 55 54 52 51 52 51 50 50 49 47 45 43 41 41 40 37 38 38 34 33 35 33 30 31 33 33 33 32 31 31 32 31 28
66 67 66 66 66 65 65 64 63 62 62 61 59 58 57 57 57 57 57 57 58 58 58 57 57 57 57 57 57 58 57 56 55 55 56 55 54 53 52 51 49 48 48 47 47 48 48 48 48 50 51 52 53 54 55 55 54 53 53 53 52 51 50 50 48 46 44 43 44 43 40 40 40 39 38 39 36 32 33 34 33 31 31 31 31 31 27 26
68 69 69 69 69 69 68 68 67 66 66 65 63 62 61 60 59 59 59 59 59 59 59 59 59 59 59 59 60 60 58 58 58 57 57 57 57 56 55 54 52 50 50 49 48 47 47 47 46 47 49 50 52 53 53 54 54 54 55 54 53 53 52 51 50 49 47 45 46 45 43 42 42 41 42 41 39 36 36 35 33 32 32 31 30 28 25 25
68 70 70 70 70 71 71 71 71 70 70 69 68 66 65 64 63 62 61 61 61 61 61 61 61 61 61 61 61 61 60 61 60 59 59 59 59 59 58 56 55 53 52 51 50 48 47 47 46 46 46 47 49 50 51 53 53 54 56 55 54 54 54 53 52 51 49 47 48 47 45 45 45 44 45 45 44 42 40 37 36 35 32 30 28 26 25 24
68 70 71 71 71 72 73 73 73 73 74 73 72 71 69 68 66 65 64 64 63 63 63 62 63 63 63 63 62 62 63 62 62 62 61 61 61 60 60 59 58 56 55 53 52 51 49 48 48 47 46 46 47 48 50 51 51 53 55 53 53 54 54 54 52 52 50 48 48 49 47 47 47 47 47 47 46 45 42 39 37 34 31 29 27 26 24 22
67 70 72 71 71 71 73 74 75 75 76 76 76 75 73 72 71 69 68 67 66 65 64 64 64 64 65 65 65 64 64 63 63 64 63 62 62 62 62 61 61 60 58 56 55 53 52 51 50 49 47 47 46 46 47 47 49 52 52 51 51 53 53 53 52 51 50 49 49 49 48 48 49 48 46 46 46 44 41 38 36 33 31 29 27 26 23 23
65 68 71 72 72 71 72 73 75 77 78 78 78 78 77 76 75 73 72 71 69 68 67 66 66 66 66 67 66 65 65 65 65 65 65 65 64 63 63 64 64 63 61 60 58 56 55 53 51 50 49 48 47 46 45 46 49 50 49 50 51 52 53 51 50 51 50 49 49 49 47 47 49 48 46 46 46 44 41 38 35 33 32 29 27 25 23 23
63 66 68 71 72 73 73 73 74 76 79 80 80 80 80 79 78 77 76 75 73 71 70 69 68 68 67 67 67 68 69 68 67 67 67 66 66 65 66 66 66 65 64 62 61 59 58 56 54 53 51 50 49 47 46 47 49 49 49 50 51 51 52 50 49 50 49 48 48 48 47 46 47 47 46 46 45 44 41 38 36 34 33 31 29 26 23 23
62 64 66 69 71 73 74 74 74 75 78 80 82 82 81 81 81 80 80 78 77 76 74 72 71 70 69 69 69 69 70 70 70 69 69 68 68 67 67 67 67 66 65 64 64 63 61 59 57 55 53 52 51 50 50 51 50 48 48 49 50 50 50 48 47 48 47 46 45 46 46 44 44 46 46 45 44 44 41 38 37 35 34 33 30 28 26 24
60 61 63 66 70 73 75 76 76 76 78 80 82 83 83 83 83 83 83 82 81 79 77 76 75 73 71 70 70 71 71 71 71 72 71 70 70 69 69 68 68 68 67 66 66 65 64 62 60 57 56 56 55 55 55 54 51 48 47 48 47 48 47 45 45 45 44 43 43 45 45 43 42 44 44 43 41 41 40 38 37 35 35 34 32 30 29 25
58 59 61 63 67 70 73 76 79 80 80 80 82 84 85 85 84 84 84 84 84 82 81 80 79 77 74 73 73 73 72 72 72 73 73 73 72 71 71 70 69 69 68 68 68 67 66 64 62 61 61 60 59 58 57 55 52 49 47 46 46 46 44 43 44 42 41 41 41 43 44 41 39 40 41 40 39 39 39 37 36 35 35 35 33 32 30 26
58 57 58 60 63 66 70 74 78 82 83 82 82 84 86 86 86 86 86 85 85 85 84 83 82 81 78 77 77 75 73 73 73 74 74 74 74 73 73 72 71 70 70 70 70 68 66 64 64 65 65 64 62 60 58 56 54 51 49 47 47 45 44 45 45 43 40 39 39 41 41 38 35 37 38 38 38 38 37 36 36 37 36 35 34 31 29 26
57 55 55 57 60 63 66 70 74 79 83 84 84 85 86 87 88 88 87 87 87 86 86 86 85 84 82 82 81 78 76 75 74 74 75 75 75 74 74 73 72 71 71 71 71 69 66 66 67 68 68 67 65 62 61 59 56 53 51 49 48 47 47 47 46 43 40 39 40 40 38 35 34 35 35 35 36 36 36 35 37 39 38 35 34 31 28 27
55 53 53 54 57 59 61 65 69 73 79 83 85 86 86 87 89 89 89 89 88 88 87 87 87 87 86 86 84 83 80 79 77 76 76 76 76 75 74 74 73 73 73 72 72 70 68 69 70 70 70 69 68 65 64 61 59 56 54 52 51 50 50 49 47 44 41 40 40 38 35 33 32 31 32 33 34 35 35 35 38 39 38 35 34 32 29 28
53 51 51 52 54 55 57 60 63 67 72 77 83 86 87 87 88 90 90 90 90 89 88 88 88 88 89 89 88 86 85 83 81 78 78 78 76 75 76 76 75 75 75 74 73 71 70 72 72 72 71 71 70 69 67 64 62 59 57 55 54 54 53 51 49 45 42 39 37 35 34 32 30 29 29 31 33 34 34 35 37 37 36 35 34 32 30 29
51 49 49 50 51 53 54 55 57 60 65 70 76 82 86 88 88 89 91 92 91 91 90 89 89 90 90 90 90 90 89 87 83 82 82 80 78 77 77 77 77 76 76 76 75 73 72 74 74 73 72 72 71 70 69 67 65 62 60 58 57 57 55 54 51 48 43 39 37 38 35 31 29 28 28 30 32 33 33 34 35 34 34 34 34 33 31 29
49 47 47 49 50 50 51 52 53 55 58 63 68 75 81 86 88 88 90 92 92 92 91 90 90 91 91 91 91 91 90 89 87 86 87 84 81 80 79 79 79 78 79 78 76 74 73 75 75 74 74 73 72 71 71 70 68 65 63 61 60 59 58 56 54 50 45 40 39 39 35 31 29 28 30 31 32 34 34 34 33 33 34 33 34 34 32 30
47 46 46 47 49 49 49 50 51 52 54 57 62 67 73 79 85 88 90 91 91 92 93 92 92 92 92 92 92 91 91 91 90 90 89 87 86 84 83 82 81 81 80 79 77 75 74 75 76 76 75 74 73 72 72 72 70 68 67 65 63 63 61 59 57 52 47 42 41 40 37 33 31 31 33 32 32 35 36 36 36 36 36 34 35 35 33 32
45 45 45 46 48 48 48 49 49 50 51 53 56 61 66 72 78 84 88 90 90 91 93 94 94 93 93 93 93 92 92 92 91 91 91 90 89 88 87 86 84 83 81 78 77 76 77 77 77 77 76 75 74 74 73 73 71 71 71 69 67 66 64 62 59 54 50 45 42 41 39 35 33 34 34 32 33 36 38 39 39 39 37 35 35 36 35 34
43 43 44 45 47 48 48 48 47 48 50 51 53 55 59 64 70 77 83 87 89 90 92 94 95 94 94 94 94 94 93 93 91 91 92 92 92 92 91 90 88 86 83 81 79 79 79 79 78 76 75 75 75 75 74 74 73 73 73 71 70 69 66 63 61 58 53 47 44 43 42 38 36 36 35 33 33 34 38 41 41 40 38 35 36 36 36 36
40 40 41 43 45 47 48 48 47 47 48 49 51 52 55 58 63 69 75 81 86 88 91 93 94 95 95 95 95 94 93 92 91 92 93 93 93 93 93 93 92 91 88 85 83 82 81 80 79 78 77 77 76 76 76 75 74 75 74 73 72 70 68 67 64 61 56 50 47 47 46 42 39 38 37 35 33 34 37 40 40 41 38 35 35 37 38 38
36 37 38 40 43 45 47 47 47 47 48 48 50 51 52 54 57 62 68 74 80 84 88 90 91 94 96 96 95 94 93 92 92 93 94 93 93 94 94 95 95 94 91 88 87 86 84 82 80 80 80 80 80 79 78 77 76 77 75 73 73 72 71 71 68 64 59 54 52 51 50 47 43 42 40 38 37 36 38 40 41 42 41 38 37 37 38 38
33 33 35 37 40 43 45 46 47 48 48 48 48 50 51 53 55 57 61 67 72 77 81 85 89 94 95 96 95 94 93 93 93 94 94 93 93 94 96 96 95 93 92 91 90 89 87 84 81 81 82 82 82 82 81 80 79 79 76 75 76 75 75 74 70 66 62 58 57 55 54 49 45 44 43 40 39 39 39 41 43 44 44 42 39 38 38 36
31 30 32 34 37 40 43 44 45 47 48 47 48 49 50 52 53 54 56 59 62 67 73 78 86 91 93 94 93 93 95 95 94 94 94 94 95 97 98 97 94 93 94 93 92 91 90 88 86 86 85 84 84 83 83 82 81 80 78 78 79 78 77 75 72 68 65 62 61 59 57 52 48 47 46 43 42 41 40 42 44 47 47 45 42 40 40 38
29 28 29 31 34 37 40 41 43 46 47 48 48 48 49 51 52 53 52 51 52 58 66 73 81 87 90 91 91 93 96 96 95 95 95 96 98 100 99 96 93 94 94 93 92 93 93 93 92 91 89 87 85 84 84 84 83 82 80 80 81 80 78 76 73 70 68 66 65 64 59 54 51 51 49 47 45 44 42 41 44 48 48 46 44 43 42 41
28 27 26 27 30 33 36 38 41 43 46 47 48 48 48 50 51 50 48 46 49 55 62 68 74 79 83 87 89 92 95 94 95 96 97 98 101 102 99 95 93 94 94 92 92 92 93 95 95 93 91 89 87 87 86 85 84 83 82 82 82 81 79 76 74 72 71 69 68 66 60 55 54 54 52 50 48 47 45 42 44 48 49 47 45 45 45 43
27 25 24 24 26 29 33 35 38 41 43 46 47 47 48 49 49 48 47 47 51 54 56 60 66 71 77 81 84 88 91 92 94 97 99 101 103 102 97 92 92 93 93 93 94 93 94 96 95 94 94 93 92 91 89 87 85 84 83 82 82 82 80 77 76 74 73 71 70 68 63 60 59 57 55 53 51 49 47 46 46 47 48 49 47 47 47 45
27 24 22 22 24 26 29 32 34 37 40 43 45 47 49 49 48 49 48 48 51 52 51 52 57 63 69 73 76 81 86 89 93 98 100 102 104 100 94 91 91 93 94 95 96 95 96 98 97 96 97 97 96 94 93 91 87 84 84 83 84 84 82 80 78 77 75 73 72 71 67 64 62 60 59 57 55 53 50 49 49 46 47 51 50 49 48 47
26 23 21 21 22 24 26 28 31 34 36 39 43 46 48 49 50 50 48 48 50 50 48 47 50 56 63 66 68 74 80 83 90 96 99 102 102 98 93 92 92 94 96 96 97 96 97 100 99 97 98 98 96 94 93 92 90 88 87 86 85 84 83 82 80 78 77 75 74 73 70 67 64 62 62 60 59 57 53 52 52 47 47 52 53 52 50 48
25 22 20 19 20 21 23 25 28 30 33 36 40 43 47 50 50 50 48 48 50 49 46 46 49 54 57 58 61 67 73 78 85 93 97 99 99 96 93 92 93 95 97 97 98 98 99 101 101 99 98 98 95 93 93 94 95 94 92 89 88 86 84 83 81 80 79 77 75 74 73 70 68 66 65 65 64 61 57 56 55 51 49 52 55 55 52 49
25 21 19 18 18 19 20 22 25 27 30 34 37 41 44 47 49 49 49 49 49 49 48 48 50 52 53 53 55 59 66 72 78 86 92 94 95 94 93 93 95 97 99 100 100 100 100 101 102 101 99 98 97 96 97 98 98 97 96 93 92 90 88 86 84 82 81 79 77 77 75 73 72 71 71 70 69 66 62 59 57 54 52 52 56 57 55 52
25 21 18 17 17 17 18 20 22 25 28 32 35 37 40 43 45 48 49 49 50 51 50 49 49 51 53 52 51 53 59 66 72 79 85 88 90 92 93 94 96 98 100 101 100 100 99 100 101 102 101 99 99 100 99 98 96 95 95 95 94 94 92 90 88 86 84 83 82 80 77 76 76 76 75 75 73 69 66 62 59 57 55 55 56 58 59 55
26 21 18 15 15 14 16 18 20 22 26 29 31 33 36 38 41 44 46 49 51 51 51 50 50 53 55 53 51 52 56 62 69 75 79 81 83 87 90 93 95 97 99 101 101 100 100 100 101 102 102 101 101 101 100 97 95 93 94 96 97 97 97 95 92 90 88 86 85 82 80 79 80 80 79 78 76 72 68 65 62 61 59 58 58 61 63 59
28 23 19 16 14 13 13 15 17 20 23 26 28 31 33 35 38 40 43 47 50 51 52 52 53 55 56 54 53 54 56 60 66 70 72 73 77 81 85 89 93 97 99 101 102 102 102 102 102 102 103 102 102 103 102 100 99 97 96 98 100 101 101 100 97 94 90 87 86 84 82 82 85 85 84 82 80 76 73 70 67 65 64 61 60 63 65 62
30 25 20 17 15 13 12 13 15 18 21 23 26 28 31 33 35 37 41 44 47 49 51 53 55 56 57 57 56 56 59 61 64 67 68 69 73 77 79 83 89 94 98 101 102 103 104 104 103 103 104 104 104 104 104 104 104 102 100 100 102 105 105 104 101 98 93 90 88 85 83 85 89 90 88 86 84 80 77 75 72 69 66 62 61 62 63 60
32 27 23 19 16 14 13 13 14 16 18 21 23 26 29 31 33 36 39 41 43 46 48 51 54 56 57 59 59 59 60 62 64 66 67 68 70 72 74 78 85 91 95 99 101 103 105 104 103 104 104 104 105 106 106 106 106 104 101 100 103 106 106 105 102 100 96 92 90 86 84 87 91 91 89 88 86 83 80 78 74 68 64 62 60 59 59 58
35 29 25 21 17 15 14 13 14 15 17 19 21 24 27 30 32 35 37 39 42 44 46 48 51 53 55 58 59 60 61 63 65 66 67 67 67 68 70 74 80 85 89 94 97 100 103 103 103 103 104 104 105 106 106 107 107 105 103 103 105 106 105 104 102 101 98 95 92 88 85 87 91 91 89 88 87 84 83 81 75 69 66 64 61 60 60 59
38 32 27 23 19 16 15 14 14 14 16 17 20 23 25 28 30 33 36 38 40 43 45 47 49 51 53 55 57 59 60 62 64 66 67 67 67 67 68 70 75 79 83 88 92 95 99 101 102 103 103 104 106 107 107 107 107 106 105 106 108 106 104 104 103 102 100 97 94 92 90 90 92 91 89 90 89 84 82 82 77 71 69 69 66 65 63 60
41 35 30 25 21 18 16 15 14 15 16 17 19 21 24 26 29 31 34 36 39 41 43 46 47 49 51 53 55 56 58 60 62 64 65 66 67 67 68 70 72 75 79 83 87 90 93 96 99 102 103 104 106 107 108 108 107 107 107 107 109 108 106 107 106 104 101 98 96 96 95 94 93 92 90 91 91 86 80 80 80 74 72 72 70 68 65 62
42 38 33 28 24 21 19 17 16 16 16 17 19 21 23 25 28 30 32 34 37 39 41 44 46 47 49 51 53 54 56 57 59 60 62 64 65 66 68 71 72 73 77 80 83 86 88 92 97 100 101 102 105 107 108 109 108 107 107 107 108 109 108 109 108 105 101 98 97 97 98 98 95 92 92 93 94 90 82 78 81 79 75 75 74 71 69 67
44 40 35 31 27 23 20 19 17 17 16 17 18 20 21 23 26 28 31 33 35 37 39 41 43 45 47 49 50 52 53 54 56 57 59 60 63 64 67 70 73 74 76 79 82 84 86 89 93 97 98 100 103 106 108 110 110 109 107 107 108 109 110 111 110 107 103 99 98 100 102 103 100 96 95 95 95 93 86 79 82 85 81 78 78 75 73 71
46 42 38 34 30 26 23 21 19 18 18 17 18 19 20 21 23 25 28 30 33 35 37 39 41 43 45 46 47 49 50 52 53 55 58 60 62 65 67 69 73 75 77 80 82 84 86 88 91 94 95 96 100 104 108 110 111 110 108 108 109 110 112 113 111 108 106 103 102 104 107 108 106 101 99 99 97 96 93 87 85 87 86 83 81 80 76 74
49 44 40 36 33 29 26 23 21 20 19 18 18 18 19 20 21 23 25 27 29 32 34 36 38 40 41 43 45 47 49 51 53 55 57 60 62 64 66 68 71 73 75 77 79 82 84 86 88 91 92 92 97 103 106 110 112 110 107 108 111 112 113 114 113 111 109 107 106 108 110 112 110 105 103 103 101 98 98 95 89 88 89 87 84 83 80 77
Wind_Direction
264 264 263 262 261 258 255 252 249 247 245 243 241 240 239 237 235 233 232 231 229 227 226 225 224 223 223 222 220 218 214 211 211 212 214 216 218 218 218 218 218 218 217 216 216 216 216 216 216 215 215 215 215 216 218 220 222 225 226 226 227 228 227 225 225 227 224 220 229 240 240 258 279 293 283 279 276 277 285 289 296 308 311 314 318 320 324 329
264 263 262 262 261 259 257 254 251 248 246 244 242 241 239 238 236 234 233 231 230 229 227 226 225 224 223 223 222 221 219 215 212 211 213 216 218 219 220 220 219 220 220 219 219 218 218 217 217 218 218 218 218 217 218 220 222 225 226 226 227 228 229 229 227 230 230 226 233 237 240 254 259 261 263 261 257 263 275 278 291 307 308 311 315 317 323 328
263 262 261 261 260 259 257 256 253 250 248 245 243 241 240 239 238 236 234 232 231 230 228 226 225 224 224 223 223 223 222 220 215 211 213 215 217 219 220 221 221 221 221 221 221 220 220 220 220 220 221 221 222 222 222 223 224 226 228 228 228 229 230 230 231 233 232 229 233 241 252 253 242 241 251 252 253 258 258 267 290 304 306 311 313 316 324 327
262 261 260 260 259 258 256 255 254 252 249 247 245 243 241 240 239 237 235 234 232 231 230 228 226 225 224 223 223 223 223 223 217 213 216 215 215 217 220 221 221 221 222 223 223 222 222 222 222 222 222 222 223 224 226 227 227 229 231 232 231 232 234 233 234 235 233 233 234 240 255 256 244 237 249 259 259 257 252 267 291 302 308 312 312 318 324 326
261 260 259 258 257 257 256 254 253 252 250 248 246 244 242 241 239 238 236 235 233 232 231 229 227 225 225 224 224 223 224 224 218 216 220 217 215 216 218 221 222 222 223 224 224 224 223 223 224 224 224 223 223 224 225 227 229 230 233 234 234 234 237 236 236 237 236 238 238 239 244 249 246 238 250 267 266 258 255 272 287 288 301 306 307 315 322 326
262 261 259 257 256 255 254 254 253 251 250 249 247 245 244 242 240 239 237 235 234 233 232 230 229 227 225 224 224 224 225 225 219 218 221 218 217 217 216 220 222 222 222 223 224 224 225 225 225 225 225 225 225 225 225 226 228 230 232 234 235 235 237 237 236 237 236 237 238 237 239 241 243 246 256 268 268 259 260 274 276 278 296 301 302 310 319 325
262 261 260 258 256 254 253 252 252 251 250 249 247 246 244 243 241 240 238 237 235 233 232 231 230 228 226 225 225 225 226 225 220 219 222 218 219 219 217 218 221 223 221 222 224 224 225 225 226 226 226 226 226 226 226 227 228 229 230 231 234 235 235 236 236 237 235 235 237 237 239 241 244 254 259 260 260 259 267 272 269 279 294 297 300 305 313 318
260 259 259 258 256 255 253 252 251 250 249 248 247 246 244 243 241 240 239 238 236 235 233 232 231 230 228 226 226 226 227 226 220 220 223 219 220 220 218 218 220 224 223 221 222 223 224 225 226 227 227 227 227 227 227 228 229 229 230 231 233 235 236 235 235 236 235 234 237 237 237 240 244 250 253 251 254 260 266 266 268 284 292 291 296 301 306 309
259 257 256 256 255 254 253 251 250 249 248 248 247 246 245 243 242 240 239 238 237 235 234 233 232 231 229 227 227 227 228 226 220 221 223 220 220 221 220 219 219 222 224 223 222 222 223 224 225 226 227 228 228 228 229 229 230 229 230 231 232 233 235 236 235 236 236 235 237 238 236 237 240 244 250 251 253 258 260 263 274 286 288 288 292 298 304 304
260 257 255 254 253 253 252 251 250 249 247 247 246 245 244 243 242 241 239 239 237 236 234 233 232 231 230 229 228 228 227 226 222 222 224 221 220 221 221 220 219 220 223 225 223 222 222 223 224 226 226 227 228 229 230 230 230 230 231 232 233 234 236 238 238 238 239 239 240 240 238 238 240 244 250 253 254 256 260 268 279 285 285 286 289 295 301 302
262 259 257 254 253 252 251 251 250 249 247 246 245 244 243 243 242 241 240 239 238 237 235 234 233 232 231 230 229 228 226 226 224 222 224 223 221 221 222 222 220 220 221 223 225 223 222 222 223 224 225 226 227 228 230 231 231 232 232 234 235 236 237 239 240 240 240 242 244 244 243 242 244 246 249 253 254 256 266 275 279 283 286 287 288 292 296 297
265 262 259 256 254 252 251 250 249 248 247 246 244 243 242 242 241 241 240 239 238 237 236 235 233 232 231 230 230 229 227 227 225 223 224 224 222 221 222 222 221 221 221 222 224 224 222 222 222 223 224 225 226 227 229 231 231 232 233 234 234 236 237 238 240 241 240 241 243 245 245 246 247 248 250 252 253 257 269 274 274 279 284 286 286 286 290 294
268 266 263 260 257 254 252 250 248 247 247 246 244 243 241 241 240 240 239 238 237 237 236 235 234 233 232 231 230 230 228 227 226 224 224 224 224 222 221 222 222 222 222 221 222 223 223 222 221 222 222 224 225 226 227 229 230 231 232 233 234 235 236 237 239 240 240 240 243 245 245 246 248 248 249 251 254 260 268 270 270 275 280 281 282 282 287 291
270 269 267 264 260 257 254 252 249 247 246 245 244 243 241 240 239 239 239 238 238 237 236 235 234 233 233 232 231 230 229 228 227 226 225 225 224 223 222 222 222 222 222 222 222 222 223 222 221 221 221 222 224 225 227 229 229 230 231 232 233 235 236 237 238 240 240 241 242 245 245 246 247 247 248 251 255 260 263 266 267 272 276 276 277 279 281 285
271 270 270 268 265 260 257 254 251 248 246 245 244 243 242 240 239 238 238 238 237 237 236 235 234 234 233 233 232 231 230 229 229 228 226 225 225 224 224 223 223 222 222 223 222 222 222 222 222 221 220 221 222 224 227 228 228 230 231 231 232 234 235 237 238 240 240 240 241 244 245 246 247 247 248 250 254 256 258 261 264 268 271 272 273 274 274 278
271 270 269 269 267 264 259 255 252 249 247 245 244 242 241 240 239 238 237 237 237 236 236 235 234 234 233 233 232 232 232 230 229 229 227 227 226 225 224 224 223 223 222 222 223 223 222 222 222 221 220 220 221 222 224 226 228 230 230 231 232 233 235 235 237 238 239 240 241 242 243 245 248 248 249 249 251 253 255 257 260 262 265 267 270 269 268 270
272 270 268 267 265 263 261 256 252 249 247 245 244 242 241 240 239 238 237 236 236 236 235 235 235 234 233 233 233 232 232 231 230 229 228 227 227 226 225 224 224 223 223 223 223 223 223 222 222 222 221 220 221 220 220 223 227 229 230 231 232 233 234 234 235 237 238 239 240 241 241 242 246 248 249 250 251 253 252 254 255 255 258 262 263 263 263 264
275 272 268 264 262 260 258 256 253 249 246 244 243 242 241 239 238 237 237 236 236 235 235 235 234 234 233 233 232 232 232 232 231 230 229 228 228 227 227 225 225 224 224 223 223 223 223 223 223 223 222 221 221 220 220 223 226 228 230 232 232 233 235 234 235 236 237 238 238 240 240 240 243 246 247 248 251 253 252 251 251 251 254 256 256 257 258 260
279 275 270 264 260 257 255 253 251 249 245 243 241 240 240 239 238 237 236 236 235 235 234 234 234 233 233 233 233 232 232 232 232 232 230 229 229 228 228 227 226 225 224 224 224 223 223 223 223 223 222 222 222 221 222 224 224 225 228 231 233 234 235 235 235 236 237 237 238 239 239 239 240 243 245 246 248 251 251 249 248 249 250 251 251 252 254 255
283 278 272 266 261 257 253 250 248 247 245 242 240 239 238 238 237 237 236 235 234 234 234 233 234 233 232 233 233 232 232 231 231 232 231 230 229 229 228 228 227 226 225 225 225 224 224 224 224 224 223 223 223 223 224 225 223 222 225 229 232 233 234 234 234 234 235 237 237 239 239 237 238 241 243 243 243 246 249 247 244 245 247 248 247 249 249 250
288 282 275 268 262 257 253 249 246 244 243 242 240 238 237 236 235 235 235 235 234 233 233 233 233 233 232 232 232 232 231 231 231 232 232 231 230 230 229 228 227 227 226 226 225 225 224 224 225 225 224 224 224 224 224 225 223 222 222 226 230 232 232 232 233 232 232 235 236 238 239 237 236 238 240 240 239 240 243 242 238 239 243 244 243 244 245 247
291 284 276 269 263 258 254 250 246 243 242 241 240 238 237 235 234 234 234 234 234 233 232 232 232 232 231 232 232 231 231 231 231 231 232 232 231 230 230 229 228 228 227 227 226 225 224 225 225 225 225 225 224 224 224 225 224 223 222 223 226 229 231 232 233 231 230 232 235 237 239 236 234 235 237 237 236 235 236 235 233 236 239 238 237 238 240 242
291 285 277 270 264 259 254 251 248 245 242 241 240 239 237 236 234 233 233 233 233 233 232 232 231 231 231 231 231 231 231 231 230 231 231 231 231 231 230 230 229 228 228 227 227 226 224 225 225 226 226 226 225 224 224 225 224 223 222 222 223 227 229 231 232 231 229 231 236 238 238 235 232 233 234 233 231 230 230 230 230 232 234 233 233 233 233 236
291 284 277 269 263 258 254 251 248 246 244 241 240 239 238 237 235 234 233 232 232 232 232 232 231 231 231 231 231 231 231 230 230 230 231 231 231 231 231 230 229 228 228 227 227 226 225 225 226 226 226 226 226 225 225 225 224 223 222 222 223 225 228 230 231 231 229 230 234 236 235 232 230 229 230 230 229 226 224 225 227 229 230 230 230 228 229 232
290 283 276 269 262 258 254 251 248 247 245 243 241 239 238 237 237 235 234 233 232 232 231 231 231 231 230 230 230 230 230 230 229 230 231 231 230 231 231 231 230 229 228 227 226 225 225 226 226 226 226 226 226 226 225 225 224 223 223 223 223 225 227 229 230 230 228 225 226 231 232 229 228 228 228 228 227 224 220 219 223 226 227 227 226 224 225 227
289 282 275 268 262 257 253 251 248 246 245 244 242 240 238 237 237 236 236 234 233 232 232 231 231 231 231 230 230 230 230 230 229 230 231 230 230 230 231 231 230 230 229 228 226 226 226 226 226 226 226 225 225 225 226 225 224 224 223 223 224 225 226 228 229 229 227 222 221 228 231 227 225 225 226 224 223 222 219 216 218 220 220 221 222 223 222 220
288 281 274 267 262 257 252 250 248 246 245 244 243 241 239 237 237 236 236 235 234 234 233 231 231 231 230 230 230 230 229 229 229 229 230 230 230 230 230 230 231 230 229 228 227 226 226 227 226 226 226 225 225 225 225 225 225 224 224 223 224 225 226 228 229 229 226 221 219 225 228 224 220 221 225 224 219 217 216 214 215 214 214 216 220 221 218 214
287 280 273 266 261 257 252 249 246 245 244 243 242 242 240 238 237 236 235 235 235 234 234 233 232 231 231 230 230 230 229 229 228 229 230 230 230 230 230 230 230 230 230 229 229 228 227 227 227 227 226 225 225 225 225 225 224 224 224 224 224 225 226 227 229 229 226 221 218 222 226 223 219 219 223 225 220 217 214 213 213 212 212 215 218 217 215 212
287 279 272 265 260 256 252 249 245 244 244 243 242 241 240 239 237 236 235 234 234 233 234 234 233 232 231 231 231 230 230 229 228 229 230 230 230 230 230 230 230 230 230 229 228 228 228 227 227 227 227 227 226 226 225 225 224 224 225 224 224 225 226 226 228 228 226 222 218 220 224 222 220 220 220 221 222 222 220 215 212 211 211 213 216 215 214 214
288 279 271 265 259 255 251 248 245 242 242 242 241 241 240 239 238 236 235 234 233 233 233 234 234 234 233 232 231 231 230 230 229 229 229 229 230 230 230 230 230 230 229 229 228 228 228 227 226 227 227 227 227 226 225 225 224 225 225 224 224 225 226 226 226 227 226 223 219 218 220 220 218 220 219 215 216 222 225 221 214 210 211 214 216 216 217 216
289 280 271 264 259 254 251 247 245 242 240 240 241 241 240 239 238 237 235 234 233 232 232 233 234 234 234 233 232 231 231 230 230 229 229 229 229 230 230 230 230 229 229 229 229 229 228 227 227 227 226 226 226 225 225 224 224 224 224 224 224 224 225 226 225 225 224 223 221 219 218 218 216 218 219 213 211 216 222 223 216 211 211 212 216 218 216 213
292 281 272 264 258 254 250 246 244 242 240 238 238 239 240 239 238 237 236 234 233 232 232 232 233 234 234 233 232 232 232 231 230 230 230 230 230 230 230 230 229 230 229 229 229 229 229 228 227 228 227 227 227 226 225 224 223 223 223 223 224 223 224 225 224 223 222 222 222 220 218 217 215 218 220 214 211 213 218 222 218 213 211 210 212 214 210 206
296 284 273 265 259 254 250 246 243 241 240 238 237 237 238 239 239 237 236 235 234 233 232 231 232 233 233 233 232 232 232 231 231 231 231 230 230 230 230 229 229 230 229 229 229 229 229 228 227 227 228 227 227 227 226 225 225 224 223 222 223 223 223 223 223 222 221 221 222 221 219 216 213 216 219 216 211 212 216 222 221 216 213 210 210 210 206 205
300 288 276 266 259 255 251 247 243 241 240 238 237 236 237 238 239 238 237 237 236 234 232 231 231 231 232 232 231 231 231 231 230 231 231 231 231 230 229 228 228 229 229 229 229 229 229 228 227 227 228 228 228 228 227 226 226 225 224 224 224 224 223 222 222 222 220 220 221 221 217 214 213 215 218 217 213 210 212 220 223 219 215 213 211 208 206 209
305 293 280 269 261 256 251 247 243 241 239 238 237 237 237 238 239 239 238 237 235 234 231 230 231 231 231 232 231 230 231 230 231 231 231 231 232 230 229 228 228 229 229 229 229 229 230 229 228 228 228 228 229 229 228 227 226 225 225 225 225 225 224 222 221 221 221 219 220 221 217 214 214 215 217 218 215 211 209 215 222 222 216 214 214 210 208 210
311 299 286 274 264 257 252 247 243 241 239 238 237 237 237 238 238 239 236 235 235 234 233 232 232 231 231 231 231 231 231 230 230 231 231 231 232 231 229 228 229 229 230 230 229 229 230 230 228 227 228 227 228 229 229 228 227 227 226 225 226 226 225 223 222 221 221 220 219 220 217 213 213 214 216 218 218 214 209 211 219 222 219 215 214 213 211 209
316 304 291 278 267 258 252 247 244 241 239 238 236 236 237 237 238 238 235 235 236 235 234 234 233 233 232 231 231 231 231 230 230 231 231 231 232 231 230 229 230 230 230 230 229 229 230 230 228 227 227 226 227 228 229 229 228 227 227 226 226 226 225 224 222 221 220 220 219 219 217 214 212 213 215 216 218 216 209 211 216 217 220 218 214 214 213 209
320 308 295 282 271 261 254 248 244 242 240 238 236 235 236 236 237 237 235 235 237 236 234 234 235 234 232 231 230 231 231 230 230 231 231 231 232 231 230 229 230 231 231 230 229 229 230 230 228 227 227 226 226 227 228 229 228 227 227 227 226 226 226 225 223 221 220 219 219 219 218 216 213 213 215 215 217 217 211 211 214 212 216 220 217 215 212 208
323 312 300 286 275 266 258 251 245 242 240 238 237 236 236 236 236 237 236 236 238 237 235 234 235 235 233 230 229 230 231 229 230 231 231 231 232 230 229 229 229 231 231 230 230 229 230 231 229 228 228 227 226 226 227 227 228 227 226 227 227 226 225 225 224 222 221 219 219 218 217 216 214 212 214 215 216 217 213 211 212 209 209 217 219 217 212 209
327 317 306 292 280 270 261 254 247 242 239 238 237 236 236 236 236 237 237 237 238 238 236 234 235 237 235 231 228 230 232 231 231 233 232 231 231 231 229 228 229 230 231 230 230 229 229 230 230 228 227 227 226 226 225 225 226 227 226 226 227 227 224 223 223 222 221 220 218 218 217 216 216 214 214 215 215 216 215 212 211 209 205 209 216 218 214 210
333 323 312 299 287 275 264 256 249 243 239 237 237 237 238 238 237 237 237 238 238 239 238 236 236 238 237 233 228 229 232 232 231 232 232 231 230 230 229 228 228 230 231 231 230 230 229 230 231 230 228 227 227 226 226 226 226 227 227 226 227 228 226 224 222 221 220 218 217 216 216 216 217 216 214 214 214 214 215 213 211 211 206 203 210 216 215 212
339 331 321 308 294 280 268 260 252 246 242 240 239 238 239 239 238 238 238 238 238 239 239 238 237 238 238 235 230 228 231 233 233 232 232 231 230 230 229 229 228 229 231 231 231 230 230 229 230 231 229 227 227 226 226 225 225 225 227 227 226 226 227 225 223 221 219 218 216 214 214 215 217 218 216 214 214 213 215 214 211 211 208 201 203 212 215 214
345 340 331 320 306 290 275 264 256 250 246 243 241 239 238 238 238 238 238 238 238 238 238 238 237 238 239 237 233 231 231 233 236 235 232 230 231 230 229 229 229 229 230 231 231 230 229 228 229 230 230 228 227 227 226 225 224 223 224 226 225 225 225 225 224 222 220 219 217 213 212 215 217 217 216 214 213 211 213 214 212 211 210 203 200 207 213 213
349 346 338 329 318 303 287 272 261 253 249 246 243 241 240 239 238 238 238 238 239 238 238 239 238 238 239 238 236 233 232 233 235 237 235 231 230 230 229 229 229 229 229 231 231 230 229 228 227 229 230 229 227 226 226 225 224 223 222 224 225 225 225 224 224 223 220 219 219 215 212 215 217 216 215 214 212 210 211 214 213 211 209 204 200 204 210 210
353 350 344 337 327 314 299 284 270 259 253 249 245 244 242 241 240 239 239 239 239 239 239 239 240 240 240 240 238 236 235 235 235 237 237 234 231 229 228 228 230 230 229 230 231 231 230 229 227 227 229 229 228 227 226 225 225 224 223 224 226 226 225 224 224 223 221 219 219 217 213 215 219 218 216 214 212 210 210 213 214 211 210 207 203 204 208 209
357 354 348 343 334 322 309 295 281 269 260 254 249 247 245 243 242 241 241 241 240 241 240 239 240 241 241 241 241 239 238 238 237 238 238 238 235 232 230 229 230 231 231 231 231 232 231 230 228 227 228 229 229 228 227 226 225 224 223 224 226 227 226 225 224 224 223 220 219 218 214 215 219 220 217 216 215 212 210 212 213 211 210 209 206 206 207 207
360 357 352 347 340 329 317 304 291 278 269 263 256 253 250 248 246 244 243 243 242 242 242 241 240 241 241 241 242 241 240 240 239 240 240 239 238 236 233 230 230 231 233 233 232 232 232 232 230 228 227 228 229 229 228 227 225 224 222 223 225 226 225 225 224 223 223 221 219 218 216 215 218 219 218 218 217 214 212 213 214 211 210 210 209 208 207 203
2 359 354 350 344 335 325 312 299 285 275 268 263 259 256 253 250 248 247 246 245 244 244 244 244 243 242 243 243 243 242 241 241 241 241 241 240 238 237 234 231 230 232 233 233 232 232 232 231 229 227 227 229 229 229 227 226 225 223 223 224 225 225 225 224 222 221 221 220 219 218 216 216 218 219 219 217 215 213 213 214 213 211 211 211 209 207 201
2 1 358 353 347 340 332 322 311 299 287 278 270 265 262 259 256 254 252 250 249 248 247 246 246 245 245 244 244 244 244 243 243 243 242 242 241 239 238 237 235 232 231 232 233 233 233 232 232 230 228 227 228 229 229 228 226 225 224 223 223 225 225 225 224 222 220 219 220 220 220 218 216 215 218 220 218 215 213 213 214 214 213 213 213 211 208 203
2 1 0 357 352 345 337 328 320 311 302 293 284 277 272 268 265 262 259 256 254 252 251 249 249 248 247 247 246 246 246 245 245 245 244 244 243 241 239 238 237 235 233 232 232 233 233 233 233 231 228 227 227 227 228 228 226 225 224 223 222 223 225 225 224 222 219 217 217 219 220 219 216 214 216 219 219 215 213 212 212 213 213 214 214 213 210 205
0 0 0 359 356 351 344 336 328 320 312 303 296 289 283 278 273 269 266 262 259 256 254 252 251 250 249 249 248 248 247 246 245 244 244 243 242 241 239 237 237 236 234 232 231 231 231 232 233 232 229 227 227 227 227 227 227 224 223 223 222 221 223 224 224 222 220 216 216 217 219 218 216 213 213 217 218 215 212 212 211 210 211 213 215 215 212 208
358 358 358 358 357 354 350 343 336 329 321 312 304 297 290 284 279 275 271 268 265 262 259 257 255 253 251 250 249 248 247 246 245 244 243 243 242 242 241 239 238 237 236 234 233 233 232 231 232 233 231 228 227 227 226 226 227 225 223 223 222 221 221 222 223 222 220 217 216 216 218 218 216 212 211 215 216 214 212 212 211 209 209 211 214 216 215 211